FW7474 Weather Reports


Display with metric or nautical units.
time (UTC)temp
F
wind
direction
speed
MPH
gust
MPH
rain 1hr
in
rain 24hr
in
rain mn
in
humidity
%
barometer
mb
20260507083235 52 109 1.0 8.0 0.00 0.01 0.01 86 1017.5
20260507082729 51 266 2.0 6.0 0.00 0.01 0.01 87 1017.4
20260507082229 51 261 4.0 6.0 0.00 0.01 0.01 88 1017.2
20260507081729 50 157 0.0 6.0 0.00 0.01 0.01 89 1017.2
20260507081229 50 179 2.0 7.0 0.00 0.01 0.01 89 1017.3
20260507081052 50 311 2.0 7.0 0.00 0.01 0.01 89 1017.1
20260507080232 50 274 4.0 5.0 0.00 0.01 0.01 90 1017.4
20260507075729 49 246 2.0 5.0 0.00 0.01 0.01 90 1017.3
20260507075230 49 279 2.0 5.0 0.00 0.01 0.01 90 1017.3
20260507074732 49 324 1.0 5.0 0.00 0.01 0.01 91 1017.2
20260507074628 49 214 2.0 5.0 0.00 0.01 0.01 92 1017.3
20260507073735 49 215 1.0 3.0 0.00 0.01 0.01 92 1016.8
20260507073230 49 129 0.0 5.0 0.00 0.01 0.01 92 1017.0
20260507072926 48 298 2.0 5.0 0.00 0.01 0.01 92 1017.1
20260507072921 48 233 2.0 6.0 0.00 0.01 0.01 93 1016.8
20260507072842 48 252 1.0 5.0 0.00 0.01 0.01 92 1017.0
20260507072352 48 196 0.0 4.0 0.00 0.01 0.01 93 1016.9
20260507072248 48 224 2.0 4.0 0.00 0.01 0.01 93 1016.7
20260507071820 48 255 3.0 6.0 0.00 0.01 0.00 93 1017.1
20260507065740 48 249 4.0 6.0 0.00 0.01 0.01 93 1016.9
20260507065616 48 274 1.0 8.0 0.00 0.01 0.01 93 1016.9
20260507064729 48 226 3.0 8.0 0.00 0.01 0.01 93 1016.7
20260507064229 48 262 2.0 6.0 0.00 0.01 0.01 94 1016.6
20260507064112 48 242 1.0 6.0 0.00 0.01 0.01 94 1016.5
20260507063233 48 265 0.0 6.0 0.00 0.01 0.01 94 1016.6
20260507062735 48 239 3.0 4.0 0.00 0.01 0.01 94 1016.5
20260507062229 48 270 4.0 5.0 0.00 0.01 0.01 94 1016.6
20260507061728 47 197 2.0 6.0 0.00 0.01 0.01 94 1016.6
20260507061717 47 245 3.0 9.0 0.00 0.01 0.01 94 1016.3
20260507061712 47 230 4.0 8.0 0.00 0.01 0.01 94 1016.3
20260507060239 47 241 2.0 9.0 0.00 0.01 0.01 94 1016.2
20260507060018 47 260 5.0 7.0 0.00 0.01 0.01 94 1016.2
20260507055900 47 198 2.0 7.0 0.00 0.01 0.01 94 1016.1
20260507054728 47 224 5.0 7.0 0.00 0.01 0.01 94 1016.2
20260507054229 47 239 4.0 7.0 0.00 0.01 0.01 94 1016.1
20260507053729 47 258 4.0 6.0 0.00 0.01 0.01 94 1016.0
20260507053232 47 235 3.0 6.0 0.00 0.01 0.01 94 1015.9
20260507052729 47 274 4.0 6.0 0.00 0.01 0.01 94 1015.8
20260507052229 47 248 2.0 6.0 0.00 0.01 0.01 94 1015.7
20260507051728 47 211 4.0 6.0 0.00 0.01 0.01 94 1015.9
20260507051614 47 231 5.0 6.0 0.00 0.01 0.01 94 1015.7
20260507050742 47 178 1.0 6.0 0.00 0.01 0.01 94 1015.6
20260507050231 47 247 2.0 5.0 0.00 0.01 0.01 95 1015.6
20260507045728 47 280 4.0 5.0 0.00 0.01 0.00 94 1015.5
20260507045229 47 213 3.0 6.0 0.00 0.01 0.00 94 1015.6
20260507044729 47 234 1.0 6.0 0.00 0.01 0.00 94 1015.5
20260507044229 47 216 3.0 5.0 0.00 0.01 0.00 94 1015.4
20260507043950 47 209 1.0 6.0 0.00 0.01 0.00 94 1015.3
20260507043836 47 260 2.0 6.0 0.00 0.01 0.00 94 1015.3
20260507042801 47 245 3.0 6.0 0.00 0.01 0.00 94 1015.2
20260507042617 47 244 2.0 8.0 0.00 0.01 0.00 94 1015.0
20260507042520 47 235 1.0 6.0 0.00 0.01 0.00 94 1015.1
20260507042345 47 238 3.0 7.0 0.00 0.01 0.00 94 1015.0
20260507042254 47 230 4.0 8.0 0.00 0.01 0.00 94 1015.3
20260507041913 47 282 2.0 6.0 0.00 0.01 0.00 94 1014.7
20260507035746 47 250 3.0 5.0 0.01 0.01 0.01 94 1014.9
20260507035256 47 267 2.0 6.0 0.01 0.01 0.01 94 1014.9
20260507034753 47 262 4.0 6.0 0.01 0.01 0.01 94 1015.1
20260507034255 47 253 1.0 6.0 0.01 0.01 0.01 94 1015.0
20260507033741 47 251 4.0 6.0 0.01 0.01 0.01 93 1014.9
20260507033523 47 287 2.0 8.0 0.01 0.01 0.01 93 1014.8
20260507032730 47 231 2.0 8.0 0.01 0.01 0.01 93 1015.0
20260507032239 47 262 3.0 5.0 0.01 0.01 0.01 93 1015.0
20260507031735 47 227 3.0 5.0 0.01 0.01 0.01 92 1015.0
20260507031231 47 274 2.0 6.0 0.01 0.01 0.01 92 1014.9
20260507030729 47 265 1.0 8.0 0.01 0.01 0.01 92 1014.7
20260507030524 47 233 5.0 11.0 0.01 0.01 0.00 91 1014.6
20260507025740 47 233 3.0 11.0 0.00 0.00 0.00 91 1014.7
20260507025231 48 287 7.0 9.0 0.00 0.00 0.00 91 1015.0
20260507024729 48 232 7.0 10.0 0.00 0.00 0.00 90 1014.7
20260507024228 48 267 2.0 10.0 0.00 0.00 0.00 90 1014.9
20260507024025 48 238 5.0 10.0 0.00 0.00 0.00 90 1014.8
20260507023523 48 223 3.0 6.0 0.00 0.00 0.00 90 1014.7
20260507022740 48 263 5.0 7.0 0.00 0.00 0.00 89 1014.9
20260507022523 48 238 4.0 10.0 0.00 0.00 0.00 89 1014.7
20260507021729 48 253 2.0 10.0 0.00 0.00 0.00 89 1014.8
20260507021228 48 292 4.0 6.0 0.00 0.00 0.00 89 1014.6
20260507020729 48 284 3.0 9.0 0.00 0.00 0.00 88 1014.6
20260507020229 48 263 5.0 11.0 0.00 0.00 0.00 88 1014.2
20260507015739 48 281 7.0 11.0 0.00 0.00 0.00 88 1014.3
20260507015229 49 304 5.0 10.0 0.00 0.00 0.00 88 1014.3
20260507014729 49 244 6.0 10.0 0.00 0.00 0.00 87 1014.5
20260507014231 49 272 4.0 10.0 0.00 0.00 0.00 87 1014.2
20260507013729 49 289 5.0 9.0 0.00 0.00 0.00 87 1014.2
20260507013520 49 298 5.0 9.0 0.00 0.00 0.00 87 1014.5
20260507012925 49 269 3.0 9.0 0.00 0.00 0.00 87 1013.9
20260507012921 49 280 6.0 9.0 0.00 0.00 0.00 87 1014.0
20260507012858 49 279 5.0 11.0 0.00 0.00 0.00 87 1014.0
20260507012725 49 270 3.0 11.0 0.00 0.00 0.00 87 1014.0
20260507012536 49 287 8.0 11.0 0.00 0.00 0.00 88 1013.9
20260507012146 49 254 4.0 8.0 0.00 0.00 0.00 87 1013.8
20260507005753 49 259 5.0 9.0 0.00 0.00 0.00 88 1014.0
20260507005227 49 244 6.0 8.0 0.00 0.00 0.00 87 1014.0
20260507004727 49 225 2.0 11.0 0.00 0.00 0.00 87 1013.7
20260507004227 49 259 2.0 11.0 0.00 0.00 0.00 87 1014.0
20260507003727 49 271 3.0 9.0 0.00 0.00 0.00 87 1013.8
20260507003227 49 225 2.0 9.0 0.00 0.00 0.00 87 1013.8
20260507002742 49 264 3.0 9.0 0.00 0.00 0.00 87 1013.9
20260507002227 49 262 4.0 9.0 0.00 0.01 0.00 87 1013.8
20260507001732 49 301 3.0 7.0 0.00 0.01 0.00 87 1013.9
20260507001227 49 231 4.0 9.0 0.00 0.03 0.00 86 1013.7
20260507000728 49 257 6.0 9.0 0.00 0.03 0.00 86 1013.6
20260507000227 49 257 5.0 7.0 0.00 0.03 0.00 86 1013.8
20260506235738 49 248 4.0 8.0 0.00 0.03 0.00 86 1013.6
20260506235226 49 248 4.0 8.0 0.00 0.03 0.00 86 1013.8
20260506234727 49 276 4.0 7.0 0.00 0.03 0.00 86 1013.6
20260506234227 49 288 2.0 7.0 0.00 0.04 0.00 86 1013.7
20260506233727 49 226 3.0 9.0 0.00 0.04 0.00 86 1013.6
20260506233615 49 293 4.0 11.0 0.00 0.04 0.00 86 1013.5
20260506232727 49 256 4.0 11.0 0.00 0.04 0.00 85 1013.7
20260506232226 49 222 3.0 8.0 0.00 0.04 0.00 86 1013.6
20260506231726 50 305 3.0 10.0 0.00 0.04 0.00 85 1013.4
20260506231234 50 286 3.0 10.0 0.00 0.04 0.00 85 1013.5
20260506230726 50 314 2.0 9.0 0.00 0.04 0.00 85 1013.6
20260506230229 50 273 3.0 9.0 0.00 0.04 0.00 85 1013.4
20260506225727 50 233 4.0 9.0 0.00 0.04 0.00 85 1013.7
20260506225227 50 304 5.0 10.0 0.00 0.04 0.00 85 1013.6
20260506225112 50 262 4.0 10.0 0.00 0.04 0.00 85 1013.5
20260506224227 50 231 4.0 10.0 0.00 0.04 0.00 85 1013.4
20260506223726 50 278 4.0 10.0 0.00 0.04 0.00 85 1013.2
20260506223226 50 226 5.0 9.0 0.00 0.04 0.00 84 1013.3
20260506222732 50 260 4.0 10.0 0.00 0.04 0.00 85 1013.2
20260506222228 50 262 3.0 11.0 0.00 0.04 0.00 84 1013.1
20260506222113 50 311 8.0 11.0 0.00 0.04 0.00 84 1013.2
20260506222021 50 240 7.0 10.0 0.00 0.04 0.00 84 1013.0
20260506221930 50 264 5.0 13.0 0.00 0.04 0.00 84 1013.1
20260506221814 50 300 4.0 13.0 0.00 0.04 0.00 84 1013.3
20260506215656 50 258 7.0 12.0 0.00 0.04 0.04 84 1013.2
20260506215155 50 258 5.0 11.0 0.00 0.04 0.04 84 1013.1
20260506215040 50 255 3.0 10.0 0.00 0.04 0.04 84 1013.2
20260506214540 50 260 4.0 7.0 0.00 0.04 0.04 84 1013.2
20260506213656 50 296 6.0 7.0 0.00 0.04 0.04 84 1012.9
20260506213156 50 269 4.0 9.0 0.00 0.04 0.04 84 1013.0
20260506212655 50 236 7.0 11.0 0.00 0.04 0.04 84 1012.9
20260506212630 50 280 5.0 11.0 0.00 0.04 0.04 84 1012.9
20260506211705 50 261 4.0 11.0 0.00 0.04 0.04 83 1012.5
20260506211458 50 289 6.0 10.0 0.00 0.04 0.04 83 1012.5
20260506211329 50 277 7.0 11.0 0.00 0.04 0.04 83 1012.6
20260506210158 50 273 8.0 10.0 0.00 0.04 0.04 83 1012.7
20260506205655 50 249 4.0 12.0 0.00 0.04 0.04 83 1012.6
20260506205159 50 265 9.0 12.0 0.00 0.04 0.04 82 1012.6
20260506205027 50 281 0.0 11.0 0.00 0.04 0.04 83 1012.5
20260506204156 50 256 7.0 11.0 0.00 0.04 0.04 82 1012.6
20260506203655 51 301 6.0 11.0 0.00 0.04 0.04 83 1012.6
20260506203155 51 302 4.0 13.0 0.00 0.04 0.04 84 1012.6
20260506202656 51 86 1.0 13.0 0.00 0.04 0.04 84 1012.3
20260506202614 51 271 4.0 13.0 0.00 0.04 0.04 85 1012.6
20260506201725 51 254 5.0 13.0 0.00 0.04 0.04 85 1012.4
20260506201224 51 341 7.0 10.0 0.00 0.04 0.04 86 1012.2
20260506200728 52 309 4.0 10.0 0.00 0.04 0.04 85 1012.4
20260506200229 52 271 3.0 10.0 0.00 0.04 0.04 85 1012.2
20260506195656 52 294 3.0 14.0 0.00 0.04 0.04 85 1012.0
20260506195209 52 278 5.0 14.0 0.00 0.04 0.04 85 1012.1
20260506194926 52 256 3.0 8.0 0.00 0.04 0.04 85 1011.7
20260506194834 52 251 4.0 6.0 0.00 0.04 0.04 85 1012.1
20260506193711 52 260 3.0 11.0 0.00 0.04 0.04 85 1011.9
20260506193211 52 302 6.0 11.0 0.00 0.04 0.04 85 1011.8
20260506192657 53 247 3.0 8.0 0.00 0.04 0.04 84 1011.8
20260506192317 53 251 1.0 8.0 0.00 0.04 0.04 84 1011.7
20260506192100 53 305 3.0 12.0 0.00 0.04 0.04 84 1011.7
20260506192009 53 1 3.0 12.0 0.00 0.04 0.04 84 1011.6
20260506191901 53 293 5.0 11.0 0.00 0.04 0.04 84 1011.6
20260506191816 53 333 4.0 11.0 0.00 0.04 0.00 85 1011.4
20260506185655 53 252 7.0 9.0 0.00 0.05 0.04 85 1011.5
20260506185212 53 326 6.0 11.0 0.00 0.05 0.04 84 1011.4
20260506184657 53 262 3.0 11.0 0.00 0.05 0.04 84 1011.3
20260506184155 53 252 4.0 11.0 0.00 0.05 0.04 84 1011.3
20260506183658 53 296 4.0 11.0 0.00 0.05 0.04 83 1011.1
20260506183157 53 287 7.0 10.0 0.00 0.05 0.04 84 1011.1
20260506182657 54 244 3.0 13.0 0.00 0.05 0.04 83 1011.0
20260506182207 54 351 4.0 13.0 0.00 0.05 0.04 83 1010.9
20260506181655 54 261 9.0 13.0 0.00 0.05 0.04 83 1010.9
20260506181157 54 307 7.0 13.0 0.00 0.05 0.04 83 1010.9
20260506180655 54 314 6.0 13.0 0.00 0.06 0.04 84 1010.6
20260506180157 54 324 6.0 9.0 0.00 0.06 0.04 84 1010.6
20260506175654 54 294 4.0 11.0 0.00 0.06 0.04 84 1010.6
20260506175159 54 293 4.0 11.0 0.00 0.06 0.04 83 1010.6
20260506174655 55 299 6.0 9.0 0.00 0.06 0.04 83 1010.6
20260506174155 55 267 4.0 11.0 0.00 0.06 0.04 83 1010.4
20260506173657 55 281 4.0 11.0 0.00 0.06 0.04 83 1010.5
20260506173155 55 287 6.0 8.0 0.00 0.07 0.04 83 1010.3
20260506172706 55 242 5.0 9.0 0.00 0.07 0.04 83 1010.6
20260506172200 55 290 5.0 11.0 0.00 0.07 0.04 82 1010.2
20260506171656 55 284 9.0 11.0 0.00 0.07 0.04 82 1010.3
20260506171155 55 349 3.0 13.0 0.00 0.07 0.04 82 1010.2
20260506170655 55 316 3.0 13.0 0.00 0.07 0.04 81 1010.2
20260506170154 56 303 5.0 14.0 0.00 0.08 0.04 81 1010.3
20260506165936 56 277 4.0 14.0 0.00 0.08 0.04 80 1010.0
20260506165159 56 315 5.0 10.0 0.00 0.08 0.04 80 1010.1
20260506164655 57 306 8.0 11.0 0.00 0.08 0.04 81 1010.0
20260506164157 57 293 9.0 16.0 0.00 0.08 0.04 80 1010.1
20260506163655 57 284 11.0 16.0 0.00 0.08 0.04 79 1010.1
20260506163154 58 270 9.0 16.0 0.00 0.08 0.04 78 1010.0
20260506162801 58 272 8.0 15.0 0.00 0.08 0.04 79 1009.8
20260506162731 58 303 6.0 14.0 0.00 0.08 0.04 79 1009.9
20260506162607 58 298 7.0 17.0 0.00 0.08 0.04 78 1009.9
20260506162430 58 324 11.0 22.0 0.00 0.08 0.04 78 1009.7
20260506162320 58 306 11.0 22.0 0.00 0.08 0.04 78 1009.9
20260506162230 58 279 9.0 17.0 0.00 0.08 0.00 79 1009.7
20260506161954 58 303 14.0 17.0 0.00 0.08 0.04 79 1009.7
20260506155130 58 305 13.0 15.0 0.00 0.08 0.04 81 1009.7
20260506154629 57 322 5.0 13.0 0.00 0.08 0.04 83 1009.8
20260506154130 56 269 6.0 15.0 0.00 0.08 0.04 85 1009.8
20260506153641 56 275 3.0 15.0 0.00 0.08 0.04 84 1009.8
20260506153129 56 301 9.0 13.0 0.00 0.08 0.04 85 1010.1
20260506152630 56 296 10.0 16.0 0.00 0.08 0.04 85 1009.8
20260506152130 57 268 9.0 16.0 0.00 0.08 0.04 85 1010.1
20260506151630 57 279 7.0 15.0 0.00 0.08 0.04 86 1009.9
20260506151136 56 286 2.0 9.0 0.00 0.08 0.04 88 1009.9
20260506150630 56 294 2.0 10.0 0.00 0.08 0.04 89 1009.8
20260506150537 56 276 3.0 12.0 0.00 0.08 0.04 88 1010.0
20260506145632 56 255 7.0 13.0 0.00 0.08 0.04 88 1009.7
20260506145138 56 269 6.0 13.0 0.00 0.08 0.04 87 1010.1
20260506144629 56 258 6.0 13.0 0.00 0.09 0.04 87 1009.6
20260506144130 56 248 8.0 13.0 0.00 0.09 0.04 86 1009.7
20260506143630 56 234 9.0 12.0 0.00 0.09 0.04 87 1009.5
20260506143132 56 253 4.0 12.0 0.00 0.09 0.04 87 1009.7
20260506142630 56 257 8.0 12.0 0.00 0.09 0.04 87 1009.7
20260506142535 57 256 6.0 14.0 0.00 0.09 0.04 87 1009.6
20260506141702 57 200 4.0 15.0 0.00 0.10 0.04 87 1009.7
20260506141259 57 271 11.0 19.0 0.00 0.10 0.04 85 1009.5
20260506140129 58 296 5.0 14.0 0.00 0.10 0.04 82 1009.6
20260506140030 58 265 8.0 11.0 0.00 0.11 0.04 82 1009.5
20260506135129 58 237 4.0 9.0 0.00 0.11 0.04 83 1009.4
20260506134640 58 278 5.0 9.0 0.00 0.11 0.04 84 1009.4
20260506134130 58 260 4.0 11.0 0.00 0.11 0.04 84 1009.6
20260506134027 58 295 4.0 23.0 0.00 0.11 0.04 83 1009.3
20260506133130 58 271 8.0 23.0 0.00 0.11 0.04 80 1009.3
20260506133015 59 257 8.0 19.0 0.00 0.12 0.04 78 1009.5
20260506132238 59 239 15.0 19.0 0.00 0.12 0.04 76 1009.4
20260506132135 60 288 10.0 18.0 0.00 0.12 0.04 75 1009.3
20260506132044 59 247 7.0 14.0 0.00 0.12 0.04 75 1009.4
20260506131940 60 268 6.0 12.0 0.00 0.12 0.04 76 1009.2
20260506131823 60 241 4.0 14.0 0.00 0.13 0.00 77 1008.9
20260506125627 59 282 3.0 14.0 0.00 0.13 0.04 76 1009.2
20260506125124 59 218 5.0 12.0 0.00 0.13 0.04 76 1009.2
20260506124625 59 247 6.0 13.0 0.00 0.13 0.04 77 1009.2
20260506124125 59 229 6.0 13.0 0.00 0.13 0.04 76 1009.2
20260506123628 59 245 4.0 10.0 0.00 0.14 0.04 77 1009.2
20260506123501 59 213 2.0 10.0 0.00 0.14 0.04 78 1009.2
20260506122625 58 244 5.0 6.0 0.00 0.14 0.04 80 1009.0
20260506122125 58 243 1.0 4.0 0.00 0.14 0.04 81 1009.3
20260506121638 58 197 2.0 4.0 0.00 0.15 0.04 82 1009.0
20260506121128 57 223 3.0 4.0 0.00 0.15 0.04 83 1009.2
20260506120957 57 249 0.0 8.0 0.00 0.15 0.04 83 1009.1
20260506120429 57 224 4.0 8.0 0.00 0.16 0.04 83 1009.4
20260506120311 57 141 4.0 8.0 0.00 0.16 0.04 84 1009.4
20260506115452 57 145 1.0 6.0 0.00 0.16 0.04 83 1009.2
20260506114956 57 201 0.0 5.0 0.00 0.17 0.04 83 1009.3
20260506114125 57 161 0.0 6.0 0.00 0.17 0.04 83 1009.3
20260506114009 57 200 2.0 7.0 0.00 0.17 0.04 82 1009.4
20260506113155 57 305 1.0 7.0 0.00 0.17 0.04 82 1009.3
20260506112728 57 206 2.0 7.0 0.00 0.17 0.04 82 1009.4
20260506112149 57 286 2.0 6.0 0.00 0.17 0.04 82 1009.1
20260506111948 57 206 0.0 10.0 0.00 0.17 0.04 83 1009.3
20260506111145 57 233 2.0 10.0 0.00 0.17 0.04 81 1009.4
20260506110654 57 140 1.0 12.0 0.00 0.17 0.04 82 1009.2
20260506110449 57 261 2.0 12.0 0.00 0.17 0.04 82 1009.2
20260506105706 57 253 2.0 9.0 0.00 0.17 0.04 84 1009.1
20260506105125 57 101 2.0 9.0 0.00 0.17 0.04 85 1009.3
20260506104634 56 279 2.0 12.0 0.00 0.17 0.04 86 1009.2
20260506104144 56 219 7.0 13.0 0.00 0.17 0.04 86 1009.1
20260506103639 56 258 2.0 13.0 0.00 0.17 0.04 85 1009.2
20260506103137 56 226 3.0 7.0 0.00 0.17 0.04 85 1009.1
20260506102738 57 220 2.0 12.0 0.00 0.17 0.00 84 1008.9
20260506102710 56 179 2.0 10.0 0.00 0.17 0.04 85 1009.3
20260506102503 56 216 6.0 10.0 0.00 0.17 0.04 85 1008.9
20260506102328 56 222 4.0 8.0 0.00 0.17 0.04 85 1009.0
20260506102234 56 258 4.0 8.0 0.00 0.17 0.04 85 1008.9
20260506102143 56 226 2.0 10.0 0.00 0.17 0.04 84 1008.9
20260506095627 57 216 3.0 12.0 0.00 0.17 0.04 84 1009.1
20260506095127 57 151 5.0 13.0 0.00 0.17 0.04 84 1008.9
20260506094627 56 309 3.0 13.0 0.00 0.17 0.04 86 1009.1
20260506094127 56 207 4.0 12.0 0.00 0.17 0.04 86 1009.0
20260506093635 56 170 2.0 9.0 0.00 0.17 0.04 87 1009.2
20260506093130 56 22 0.0 9.0 0.00 0.17 0.04 88 1009.1
20260506092846 55 144 2.0 6.0 0.00 0.17 0.04 88 1009.1
20260506092818 55 182 2.0 7.0 0.00 0.17 0.04 88 1009.1
20260506091630 55 284 2.0 10.0 0.00 0.17 0.04 89 1009.2
20260506091130 55 242 3.0 10.0 0.00 0.17 0.04 90 1009.1
20260506090630 55 278 3.0 6.0 0.00 0.17 0.04 91 1008.9
20260506090140 54 124 2.0 6.0 0.00 0.17 0.04 91 1009.1
20260506085627 54 207 2.0 8.0 0.00 0.17 0.04 91 1009.0
20260506085131 54 228 0.0 8.0 0.00 0.17 0.04 91 1009.1
20260506085011 54 232 4.0 9.0 0.00 0.17 0.04 91 1008.8
20260506084130 54 229 0.0 13.0 0.00 0.17 0.04 91 1009.0
20260506083627 54 156 0.0 13.0 0.00 0.17 0.04 91 1008.9